AirNav   Pilot Hours Calculator
 
 697 users online  

MU03 Stockwell Field Airport
Brookfield, Missouri, USA

GOING TO BROOKFIELD?


FAA INFORMATION EFFECTIVE 28 MARCH 2019

Location

FAA Identifier: MU03
Lat/Long: 39-42-52.5600N / 093-08-24.5950W
39-42.876000N / 093-08.409917W
39.7146000 / -93.1401653
(estimated)
Elevation: 761 ft. / 232 m (estimated)
From city: 4 miles SW of BROOKFIELD, MO
Time zone: UTC -5 (UTC -6 during Standard Time)
Zip code: 63557

Airport Operations

Airport use: Private use. Permission required prior to landing
Activation date: 07/2017
Control tower: no
ARTCC: KANSAS CITY CENTER
FSS: COLUMBIA FLIGHT SERVICE STATION
Attendance: CONTINUOUS
Wind indicator: yes
Segmented circle: no

Airport Communications

WX AWOS-AV at MO8 (7 nm NE): 118.425 (660-258-2151)
WX AWOS-3 at CHT (17 nm W): 118.175 (660-646-0713)
  • 122.85

Nearby radio navigation aids

VOR radial/distance  VOR name  Freq  Var
MCMr271/30.6MACON VOR/DME112.9006E
BQSr079/34.3BRAYMER VOR/DME111.2003E
IRKr219/35.7KIRKSVILLE VORTAC114.6006E

 
NDB name  Hdg/Dist  Freq  Var  ID
TRENTON133/30.340003ETRX - .-. -..-

Airport Services

Fuel available: MOGAS

Runway Information

Runway 18/36

Dimensions: 1720 x 148 ft. / 524 x 45 m
Surface: turf
RUNWAY 18  RUNWAY 36
Latitude: 39-43.017667N39-42.734333N
Longitude: 093-08.407000W093-08.412833W
Elevation: 761.0 ft.755.0 ft.
Traffic pattern: leftleft

Airport Ownership and Management from official FAA records

Ownership: Privately-owned
Owner: GLENN L. STOCKWELL, INC
32263 GALLEY DR.
BROOKFIELD, MO 64628
Phone 660-258-3969
Manager: RANDALL W. STOCKWELL
32263 GALLEY DR.
BROOKFIELD, MO 64628
Phone 660-258-3969

Instrument Procedures

There are no published instrument procedures at MU03.

Some nearby airports with instrument procedures:

MO8 - North Central Missouri Regional Airport (7 nm NE)
KCHT - Chillicothe Municipal Airport (17 nm W)
KTRX - Trenton Municipal Airport (30 nm NW)
K89 - Macon-Fower Memorial Airport (32 nm E)
KIRK - Kirksville Regional Airport (36 nm NE)
 
Loc | Ops | Rwys | IFR | FBO | Links
Com | Nav | Svcs | Stats | Notes
Aerial photo
No photo
 
Airport distance calculator
Flying to Stockwell Field Airport? Find the distance to fly.

From to MU03

Sunrise and sunset
Times for 18-Apr-2019
 Local
(UTC-5)
 Zulu
(UTC)
Morning civil twilight06:0411:04
Sunrise06:3211:32
Sunset19:5200:52
Evening civil twilight20:2001:20

Current date and time
Zulu (UTC)  18-Apr-2019 11:52:13
Local (UTC-5)  18-Apr-2019 06:52:13
 
METAR
KCDJ 
21nm W 
181052Z AUTO 33010G17KT 08/04 A2971 RMK AO1 SLP056 T00830044
KIRK 
36nm NE 
181055Z AUTO 33009G18KT 10SM OVC019 08/06 A2967 RMK AO2 SLP047 T00830056
KMHL 
37nm S 
181135Z AUTO 34009G16KT 10SM BKN020 09/07 A2974 RMK AO2
TAF
NOTAMs
Click for the latest NOTAMs
NOTAMs are issued by the DoD/FAA and will open in a separate window not controlled by AirNav.

 

 
 

Would you like to see your business listed on this page?

 If your business provides an interesting product or service to pilots, flight crews, aircraft, or users of the Stockwell Field Airport, you should consider listing it here.  To start the listing process, click on the button below
 
Add a business
 

Other Pages about Stockwell Field Airport

Update a link
 
Copyright © AirNav, LLC. All rights reserved. Privacy Policy  Contact